Location: ????? ???????
(25.7275°N, 32.5929°E)
Time: 10:40:21
(UTC+00:00)

GPS 2-14 Rocket1 - Pass Details

Date: 02 March 2021
Orbit: 475 x 539 km, 20.7° (Epoch: 15 April)

Event Time Altitude Azimuth Distance (km) Brightness Sun altitude
Rises 16:37:07 0° 251° (WSW) 2,543 7.9 -11.0°
Reaches altitude 10° 16:39:28 10° 243° (WSW) 1,653 6.4 -11.5°
Maximum altitude 16:42:59 35° 176° (S) 776 3.5 -12.3°
Enters shadow 16:45:19 18° 118° (ESE) 1,241 4.1 -12.8°
